Погода в Твери

Хотите узнать прогноз погоды в Твери? Тогда Вам сюда: Погода в Твери

Поиск расширенной информации на нашем сайте:

Полезная информация:

Новости сайта



02.01.2020
Опубликован Долгосрочный прогноз погоды по городам России и ближнего зарубежья на январь 2020 года.
Карты: Прогноз на январь и февраль 2020 года, Сравнение прогнозируемой аномалии приземной температуры воздуха на январь 2020 года по разным моделям.




Погода в Твери - сегодня

Время (UTC), дата Ветер
(°,м/с) 
Видим.   Явления Облачность Т
(°С)
Тd
(°С)
f(%) Тe
(°С)
Pmin
(гПа)
dP
(гПа)
Po
(мм)
O2
(г/м3)
Тmin Tmax R s Состояние
почвы
15 27.03.20 тихо ()   10 км    9/0 средняя, верхняя 
[Ac trans|Ci fib]
+12.1 -10.7 19 +12  1031.4  -1.6  760  294           
18 27.03.20 тихо ()   10 км    9/0 средняя, верхняя 
[Ac trans|Ci fib]
+4.8 -6.7 43 +5  1030.3  -1.5  759  301    +14.1       
21 27.03.20 тихо ()   10 км    9/0 средняя 
[Ac trans]
+1 -7 55 +1  1029.7  -0.8  758  305           
00 28.03.20 тихо ()   10 км    5/0 средняя 
[Ac trans]
-1.3 -6.4 68 -1  1028.6  -1.3  758  307           
03 28.03.20 тихо ()   10 км    3/0 средняя 
[Ac trans]
-2.8 -6.7 74 -3  1026.8  -1.9  756  309  -2.9         
06 28.03.20 тихо ()   10 км    ясно 
+6.4 -3.5 49 +6  1024.6  -1.6  755  298  -3         
09 28.03.20 180 (Ю) 10 км    5/0 средняя 
[Ac trans]
+14.6 -5.6 24 +16  1021.9  -2.1  753  289           
12 28.03.20 210 (ЮЗ) 10 км    4/0 средняя 
[Ac trans]
+16.7 -5.1 22 +18  1018.6  -3.1  751  286           
15 28.03.20 220 (ЮЗ) 10 км    5/0 средняя 
[Ac trans]
+15.3 -3.7 27 +17  1015.9  -2.8  749  286           
18 28.03.20 тихо ()   10 км    9/0 средняя, верхняя 
[Ac trans|Cs]
+7.2 -1.8 53 +7  1015.3  -1.1  748  294    +16.7       
21 28.03.20 тихо ()   10 км    6/0 средняя, верхняя 
[Ac trans|Ci fib]
+3.2 -2.3 67 +3  1014.3  -1.2  747  298           
00 29.03.20 тихо ()   10 км    9/0 средняя, верхняя 
[Ac trans|Ci fib]
+1.7 -2 76 +2  1012.7  -1.7  746  299           
03 29.03.20 тихо ()   4000 м  мгла  9/0 средняя 
[Ac und]
+0.8 -1.9 82 +1  1011.2  -1.6  745  299  +0.7         
06 29.03.20 тихо ()   4000 м  дымка  8/0 средняя, верхняя 
[Ac trans|Ci fib]
+4.4 +0.1 74 +4  1010  -0.9  744  295  +0.3         
09 29.03.20 тихо ()   10 км    8/0 средняя, верхняя 
[Ac trans|Ci fib]
+11.5 -0.5 43 +12  1008.4  -0.9  743  287           
12 29.03.20 360 (С) 10 км    8/0 верхняя 
[Ci fib]
+12.6 -4.7 30 +13  1007.7  -0.7  743  287           
15 29.03.20 360 (С) 10 км    8/0 верхняя 
[Ci fib]
+7.7 -5 40 +7  1008.4  0.5  743  292           
18 29.03.20 020 (С) 10 км    8/0 средняя 
[Ac trans]
+1.8 -3.3 69 1010.9  745  298    +14.4       
21 29.03.20 010 (С) 2000 м  снег{ливн. осадки}  10/10 300 м 
[Frnb|Ns]
-1.1 -2.6 90 -2  1011.2  0.1  745  302           
00 30.03.20 360 (С) 2000 м  снег{ливн. осадки}  10/10 100 м 
[Frnb|Ns]
-2.7 -4.2 89 -4  1011.4  0.1  745  304           
03 30.03.20 360 (С) 2{10}  2000 м  снег  10/10 100 м 
[Frnb|Ns]
-4.3 -6 88 -6  1011.7  0.2  745  306  -4.3       
06 30.03.20 010 (С) 2{10}  2000 м  слаб. снег  10/8 200 м средняя 
[Frnb|As op]
-3.3 -5.3 86 -4  1012.7  746  305  -4.4    равномерный
сухой снег
100% 
09 30.03.20 040 (СВ) 4{11}  10 км  {снег}  10/6 300 м средняя 
[St|Ac trans]
-1.2 -7.6 62 -4  1013.5  0.9  746  303           
12 30.03.20 020 (С) 3{11}  10 км  {снег}  10/4 600 м кучево-дожд., средняя 
[Cb calv|Ac trans]
-0.2 -8.2 55 -2  1014  0.5  747  302           
15 30.03.20 020 (С) 2{10}  10 км    9/0 средняя 
[Ac trans]
-0.2 -12 41 -1  1014.7  0.7  747  302         
Время (UTC), дата Ветер
(°,м/с) 
Видим.   Явления Облачность Т
(°С)
Тd
(°С)
f(%) Тe
(°С)
Pmin
(гПа)
dP
(гПа)
Po
(мм)
O2
(г/м3)
Тmin Tmax R s Состояние
почвы

Для получения пояснительной информации подведите курсор к названию столбца.

ПОГОДА в Твери - архив

Всё, что Вы хотите узнать о погоде в Твери - удобно и подробно!

Выберите нужную дату (начиная с 1 января 2019* года) и нажмите кнопку "Найти".
Будут отображены архивные сводки погоды по пункту Тверь, начиная с указанной даты.


Отображать данные в формате CSV (для использования в таблицах Excel)


Внимание! Наш архив погоды предназначен исключительно для личного некоммерческого использования в познавательных целях. Если Вам необходимы официальные справки о состоянии погоды (для производственных, юридических, коммерческих и т.п. целей), обращайтесь в органы Росгидромета.

*Примечание: данная дата относится к архиву по метеостанциям СССР (Россия, СНГ, Балтия).
Архив по метеостанциям Зарубежной Европы и Азии (кроме Китая) хранится 10 дней, по другим регионам земного шара (Китай, Африка, Америка, Австралия, Океания) - 1 день.

Тверь - район местоположения метеостанции


Название, широта, долгота, высота метеостанции:
Тверь (город) 56.8°ш. 35.7°д. 137 м над ур. моря [Российская Федерация]

Дополнительная информация

В oтличие oт бoльшинства пoгoдных сайтoв мы публикуем пoдрoбную метеoинфoрмацию в детальнoм прoфессиoнальнoм фoрмате.

Характеристики температуры и влажнoсти вoздуха измеряются на высoте 2 м в тени вдали oт зданий и деревьев.
Скoрoсть ветра измеряется на высoте 10 м (на урoвне рoста челoвека скoрoсть ветра ниже в 1.5-2 раза). Если метеoстанция нахoдится в гoрoде или в лесу, тo скoрoсть ветра занижена на 2-4 м/с пo сравнению с oткрытым местoм. Скoрoсть ветра над акватoриями крупных рек и oзёр, а также на вершинах хoлмoв на 2-5 м/с выше, чем в oбычных услoвиях.
Атмoсфернoе давление в разных тoчках местнoсти мoжет значительнo oтличаться oт давления на метеoстанции, в зависимoсти oт услoвий рельефа (при пoдъёме на 10 м давление пoнижается примернo на 1 мм рт.ст.).